Weather History for Charlottesville, VA

Change the Weather History Date:

Thursday, February 27, 2014

  Actual Average Record
Temperature  
Mean Temperature 32 °F 41 °F  
Max Temperature 46 °F 52 °F 78 °F (1977)
Min Temperature 17 °F 30 °F 7 °F (1934)
Degree Days  
Heating Degree Days 33 24  
Month to date heating degree days 728 728  
Since 1 July heating degree days 3466 3388  
Cooling Degree Days 0 0  
Month to date cooling degree days 0 0  
Year to date cooling degree days 0 0  
Moisture  
Dew Point 3 °F    
Average Humidity 44    
Maximum Humidity 73    
Minimum Humidity 14    
Precipitation  
Precipitation 0.00 in 0.12 in 1.05 in (1958)
Month to date precipitation 2.84 2.58  
Year to date precipitation 5.09 5.35  
Sea Level Pressure  
Sea Level Pressure 29.81 in    
Wind  
Wind Speed 7 mph (WNW)    
Max Wind Speed 16 mph    
Max Gust Speed 28 mph    
Visibility 10 miles    
Events      
T = Trace of Precipitation, MM = Missing Value Source: NWS Daily Summary

Daily Weather History Graph

Daily Weather History Graph

Search for Another Location

Airport:

Trip Planner

Search our weather history database for the weather conditions in past years. The results will help you decide how hot, cold, wet, or windy it might be!

Date:

Astronomy

Feb. 27, 2014 Rise Set
Actual Time 6:48 AM EST 6:05 PM EST
Civil Twilight 6:21 AM EST 6:31 PM EST
Nautical Twilight 5:51 AM EST 7:02 PM EST
Astronomical Twilight 5:20 AM EST 7:32 PM EST
Moon 5:18 AM EST (2/27) 4:29 PM EST (2/27)
Length of Visible Light 12h 09m
Length of Day
11h 16m
Waning Crescent, 4% of the Moon is Illuminated
Feb 27
Waning Crescent
Mar 1
New
Mar 8
First Quarter
Mar 16
Full
Mar 23
Last Quarter

Hourly Weather History & Observations

Time (EST) Temp. Windchill Dew Point Humidity Pressure Visibility Wind Dir Wind Speed Gust Speed Precip Events Conditions
12:53 AM 24.1 °F - 8.1 °F 51% 29.86 in 10.0 mi Calm Calm - N/A   Clear
1:53 AM 24.1 °F 19.7 °F 9.0 °F 53% 29.84 in 10.0 mi NNE 3.5 mph - N/A   Overcast
2:53 AM 24.1 °F - 8.1 °F 51% 29.81 in 10.0 mi Calm Calm - N/A   Scattered Clouds
3:53 AM 21.0 °F 14.6 °F 10.9 °F 65% 29.78 in 10.0 mi West 4.6 mph - N/A   Clear
4:53 AM 19.0 °F 13.9 °F 12.0 °F 74% 29.78 in 10.0 mi WNW 3.5 mph - N/A   Clear
5:53 AM 19.0 °F 13.9 °F 10.0 °F 68% 29.76 in 10.0 mi Variable 3.5 mph - N/A   Clear
6:53 AM 19.0 °F 13.9 °F 10.0 °F 68% 29.74 in 10.0 mi SW 3.5 mph - N/A   Clear
7:53 AM 26.1 °F 18.4 °F 9.0 °F 49% 29.74 in 10.0 mi SSW 6.9 mph - N/A   Clear
8:53 AM 28.9 °F - 3.0 °F 33% 29.74 in 10.0 mi North - - N/A   Clear
9:53 AM 32.0 °F 23.6 °F -0.0 °F 26% 29.73 in 10.0 mi WSW 10.4 mph 17.3 mph N/A   Clear
10:53 AM 35.1 °F 27.4 °F -2.9 °F 20% 29.71 in 10.0 mi SW 10.4 mph 21.9 mph N/A   Clear
11:53 AM 37.9 °F 29.6 °F -2.0 °F 18% 29.70 in 10.0 mi SSW 13.8 mph 20.7 mph N/A   Clear
12:53 PM 41.0 °F 32.8 °F -0.9 °F 17% 29.68 in 10.0 mi West 16.1 mph 23.0 mph N/A   Clear
1:53 PM 43.0 °F 36.0 °F -0.0 °F 17% 29.67 in 10.0 mi West 13.8 mph 25.3 mph N/A   Clear
2:53 PM 46.0 °F 39.9 °F -0.9 °F 14% 29.68 in 10.0 mi West 13.8 mph 25.3 mph N/A   Clear
3:53 PM 44.1 °F 37.4 °F -2.0 °F 15% 29.72 in 10.0 mi NW 13.8 mph 27.6 mph N/A   Clear
4:53 PM 42.1 °F 34.5 °F -0.9 °F 17% 29.76 in 10.0 mi NW 15.0 mph 25.3 mph N/A   Clear
5:53 PM 37.9 °F 32.7 °F 1.0 °F 21% 29.83 in 10.0 mi NNW 6.9 mph - N/A   Clear
6:53 PM 34.0 °F 27.2 °F 1.0 °F 25% 29.88 in 10.0 mi NW 8.1 mph - N/A   Clear
7:53 PM 32.0 °F 28.7 °F 1.9 °F 28% 29.93 in 10.0 mi NNW 3.5 mph - N/A   Clear
8:53 PM 30.9 °F 27.5 °F 1.0 °F 28% 29.96 in 10.0 mi NNW 3.5 mph - N/A   Clear
9:53 PM 28.9 °F 22.8 °F 1.0 °F 30% 30.01 in 10.0 mi North 5.8 mph - N/A   Clear
10:53 PM 28.0 °F 21.7 °F -0.9 °F 29% 30.05 in 10.0 mi North 5.8 mph - N/A   Clear
11:53 PM 27.0 °F 21.6 °F -0.9 °F 30% 30.08 in 10.0 mi North 4.6 mph - N/A   Clear